Location: *
(37.9500°N, 27.3666°E)
Time: 15:18:26
(UTC+00:00)

Cosmos 2228 - Pass Details

Date: 24 October 2021
Orbit: 587 x 619 km, 82.5° (Epoch: 07 December)

Event Time Altitude Azimuth Distance (km) Brightness Sun altitude
Rises 16:38:36 0° 168° (SSE) 2,866 6.4 -15.9°
Reaches altitude 10° 16:40:53 10° 161° (SSE) 1,970 5.5 -16.4°
Maximum altitude 16:44:58 40° 92° (E) 914 3.4 -17.2°
Drops below altitude 10° 16:49:06 10° 23° (NNE) 1,990 5.4 -18.0°
Sets 16:51:25 0° 16° (NNE) 2,901 6.3 -18.5°
